Time,TemperatureF,DewpointF,PressureIn,WindDirection,WindDirectionDegrees,WindSpeedMPH,WindSpeedGustMPH,Humidity,HourlyPrecipIn,Conditions,Clouds,dailyrainin,SoftwareType,DateUTC
2013-10-14 00:23:00,72.0,70.0,30.01,SSE,158,4.0,13.0,94,0.00,,,0.06,,2013-10-14 05:23:00,
2013-10-14 00:43:00,72.0,70.0,30.01,SSE,153,5.0,12.0,94,0.00,,,0.06,,2013-10-14 05:43:00,
2013-10-14 00:52:00,71.0,69.0,30.00,SE,137,8.0,15.0,94,0.00,,,0.06,,2013-10-14 05:52:00,
2013-10-14 01:12:00,71.0,69.0,30.00,SE,144,7.0,13.0,93,0.00,,,0.06,,2013-10-14 06:12:00,
2013-10-14 01:22:00,72.0,70.0,29.99,SE,141,7.0,14.0,93,0.00,,,0.06,,2013-10-14 06:22:00,
2013-10-14 01:52:00,72.0,70.0,29.99,SSE,148,5.0,14.0,92,0.00,,,0.06,,2013-10-14 06:52:00,
2013-10-14 02:11:00,72.0,70.0,29.99,SE,130,6.0,13.0,92,0.00,,,0.06,,2013-10-14 07:11:00,
2013-10-14 02:22:00,72.0,70.0,29.99,SSE,148,6.0,11.0,92,0.00,,,0.06,,2013-10-14 07:22:00,
2013-10-14 02:42:00,72.0,70.0,29.98,SE,138,5.0,11.0,93,0.00,,,0.06,,2013-10-14 07:42:00,
2013-10-14 02:52:00,72.0,70.0,29.98,SSE,163,0.0,13.0,93,0.00,,,0.06,,2013-10-14 07:52:00,
2013-10-14 03:22:00,72.0,70.0,29.96,SE,142,2.0,9.0,93,0.00,,,0.06,,2013-10-14 08:22:00,
2013-10-14 03:52:00,71.0,69.0,29.96,SE,142,1.0,7.0,93,0.00,,,0.06,,2013-10-14 08:52:00,
2013-10-14 04:22:00,71.0,69.0,29.96,SE,142,0.0,8.0,93,0.00,,,0.06,,2013-10-14 09:22:00,
2013-10-14 04:43:00,71.0,69.0,29.96,SE,142,0.0,0.0,94,0.00,,,0.06,,2013-10-14 09:43:00,
2013-10-14 04:53:00,71.0,69.0,29.96,SE,142,0.0,5.0,94,0.01,,,0.07,,2013-10-14 09:53:00,
2013-10-14 05:23:00,71.0,69.0,29.96,SE,142,0.0,0.0,94,0.03,,,0.09,,2013-10-14 10:23:00,
2013-10-14 05:53:00,71.0,69.0,29.96,SE,142,2.0,6.0,94,0.02,,,0.09,,2013-10-14 10:53:00,
2013-10-14 06:22:00,71.0,69.0,29.96,SE,142,0.0,10.0,94,0.02,,,0.11,,2013-10-14 11:22:00,
2013-10-14 06:42:00,71.0,69.0,29.96,SE,138,5.0,9.0,95,0.02,,,0.11,,2013-10-14 11:42:00,
2013-10-14 06:52:00,71.0,69.0,29.97,SE,137,2.0,7.0,95,0.02,,,0.11,,2013-10-14 11:52:00,
2013-10-14 07:12:00,71.0,69.0,29.97,SE,138,3.0,8.0,95,0.01,,,0.11,,2013-10-14 12:12:00,
2013-10-14 07:22:00,71.0,69.0,29.97,SE,138,0.0,7.0,95,0.00,,,0.11,,2013-10-14 12:22:00,
2013-10-14 07:42:00,71.0,69.0,29.98,SE,138,3.0,8.0,95,0.00,,,0.11,,2013-10-14 12:42:00,
2013-10-14 07:52:00,71.0,69.0,29.96,SE,141,4.0,9.0,95,0.00,,,0.11,,2013-10-14 12:52:00,
2013-10-14 08:11:00,71.0,69.0,29.96,SSE,156,3.0,8.0,95,0.00,,,0.11,,2013-10-14 13:11:00,
2013-10-14 08:21:00,71.0,69.0,29.97,SSE,156,2.0,7.0,95,0.00,,,0.11,,2013-10-14 13:21:00,
2013-10-14 08:42:00,71.0,69.0,29.98,SSE,161,1.0,8.0,95,0.00,,,0.11,,2013-10-14 13:42:00,
2013-10-14 08:52:00,71.0,69.0,29.97,SSE,153,3.0,10.0,95,0.00,,,0.11,,2013-10-14 13:52:00,
2013-10-14 09:11:00,71.0,69.0,29.97,SSE,153,2.0,9.0,95,0.00,,,0.11,,2013-10-14 14:11:00,
2013-10-14 09:22:00,71.0,69.0,29.97,SSE,152,4.0,9.0,95,0.00,,,0.11,,2013-10-14 14:22:00,
2013-10-14 09:42:00,71.0,69.0,29.97,SSE,151,4.0,8.0,95,0.01,,,0.12,,2013-10-14 14:42:00,
2013-10-14 09:52:00,71.0,69.0,29.98,SE,145,2.0,6.0,95,0.01,,,0.12,,2013-10-14 14:52:00,
2013-10-14 10:21:00,71.0,69.0,29.97,SSE,156,0.0,8.0,95,0.01,,,0.12,,2013-10-14 15:21:00,
2013-10-14 10:54:00,72.0,70.0,29.97,SSE,149,0.0,6.0,95,0.02,,,0.14,,2013-10-14 15:54:00,
2013-10-14 11:23:00,72.0,70.0,29.97,SSE,148,4.0,8.0,95,0.02,,,0.14,,2013-10-14 16:23:00,
2013-10-14 11:53:00,74.0,72.0,29.96,SE,145,1.0,6.0,95,0.00,,,0.14,,2013-10-14 16:53:00,
2013-10-14 12:11:00,73.0,71.0,29.96,South,186,2.0,7.0,94,0.00,,,0.14,,2013-10-14 17:11:00,
2013-10-14 12:22:00,74.0,72.0,29.95,South,188,0.0,0.0,93,0.00,,,0.14,,2013-10-14 17:22:00,
2013-10-14 12:42:00,75.0,73.0,29.95,South,188,0.0,0.0,93,0.00,,,0.14,,2013-10-14 17:42:00,
2013-10-14 12:52:00,76.0,74.0,29.93,SSE,164,3.0,10.0,92,0.00,,,0.14,,2013-10-14 17:52:00,
2013-10-14 13:12:00,77.0,73.0,29.92,SE,146,3.0,9.0,88,0.00,,,0.14,,2013-10-14 18:12:00,
2013-10-14 13:22:00,77.0,73.0,29.92,SE,134,4.0,10.0,87,0.00,,,0.14,,2013-10-14 18:22:00,
2013-10-14 13:42:00,77.0,72.0,29.91,SE,134,0.0,10.0,86,0.00,,,0.14,,2013-10-14 18:42:00,
2013-10-14 13:52:00,77.0,72.0,29.90,SE,134,0.0,0.0,85,0.00,,,0.14,,2013-10-14 18:52:00,
2013-10-14 14:22:00,77.0,71.0,29.89,South,184,4.0,16.0,81,0.00,,,0.14,,2013-10-14 19:22:00,
2013-10-14 14:42:00,76.0,71.0,29.89,SSW,209,3.0,15.0,85,0.00,,,0.14,,2013-10-14 19:42:00,
2013-10-14 14:52:00,75.0,71.0,29.88,SSW,200,8.0,16.0,86,0.00,,,0.14,,2013-10-14 19:52:00,
2013-10-14 15:11:00,74.0,71.0,29.88,SSW,198,0.0,19.0,89,0.07,,,0.21,,2013-10-14 20:11:00,
2013-10-14 15:22:00,73.0,70.0,29.87,SSE,163,0.0,12.0,91,0.07,,,0.21,,2013-10-14 20:22:00,
2013-10-14 15:43:00,74.0,72.0,29.86,South,188,1.0,9.0,92,0.07,,,0.21,,2013-10-14 20:43:00,
2013-10-14 15:52:00,74.0,72.0,29.86,South,172,0.0,7.0,92,0.07,,,0.21,,2013-10-14 20:52:00,
2013-10-14 16:22:00,77.0,72.0,29.85,SSW,197,3.0,11.0,86,0.00,,,0.21,,2013-10-14 21:22:00,
2013-10-14 16:44:00,77.0,72.0,29.85,SSW,194,1.0,11.0,84,0.00,,,0.21,,2013-10-14 21:44:00,
2013-10-14 16:55:00,77.0,71.0,29.85,South,173,4.0,11.0,83,0.00,,,0.21,,2013-10-14 21:55:00,
2013-10-14 17:24:00,79.0,72.0,29.83,SSE,165,2.0,13.0,80,0.00,,,0.20,,2013-10-14 22:24:00,
2013-10-14 17:43:00,79.0,72.0,29.84,SSW,207,0.0,12.0,79,0.00,,,0.20,,2013-10-14 22:43:00,
2013-10-14 17:54:00,79.0,73.0,29.84,SSE,155,4.0,10.0,81,0.00,,,0.20,,2013-10-14 22:54:00,
2013-10-14 18:22:00,77.0,71.0,29.84,SSE,150,5.0,13.0,81,0.00,,,0.20,,2013-10-14 23:22:00,
2013-10-14 18:52:00,76.0,70.0,29.85,SSE,157,1.0,11.0,83,0.00,,,0.20,,2013-10-14 23:52:00,
2013-10-14 19:12:00,76.0,71.0,29.85,SSE,159,5.0,9.0,84,0.00,,,0.20,,2013-10-15 00:12:00,
2013-10-14 19:22:00,76.0,71.0,29.85,SSE,153,2.0,7.0,84,0.00,,,0.17,,2013-10-15 00:22:00,
2013-10-14 19:42:00,76.0,71.0,29.85,SE,142,4.0,11.0,85,0.00,,,0.17,,2013-10-15 00:42:00,
2013-10-14 19:52:00,76.0,71.0,29.85,SE,144,3.0,12.0,85,0.00,,,0.17,,2013-10-15 00:52:00,
2013-10-14 20:22:00,76.0,72.0,29.86,SSE,158,2.0,7.0,86,0.00,,,0.16,,2013-10-15 01:22:00,
2013-10-14 20:42:00,75.0,71.0,29.86,SSE,155,4.0,7.0,87,0.00,,,0.16,,2013-10-15 01:42:00,
2013-10-14 20:52:00,75.0,71.0,29.86,SSE,153,3.0,8.0,88,0.00,,,0.16,,2013-10-15 01:52:00,
2013-10-14 21:22:00,75.0,71.0,29.87,SSE,149,5.0,10.0,88,0.00,,,0.15,,2013-10-15 02:22:00,
2013-10-14 21:52:00,75.0,71.0,29.88,SSE,153,5.0,10.0,87,0.00,,,0.15,,2013-10-15 02:52:00,
2013-10-14 22:23:00,75.0,71.0,29.89,SSE,160,1.0,7.0,86,0.00,,,0.15,,2013-10-15 03:23:00,
2013-10-14 22:44:00,75.0,71.0,29.89,South,180,2.0,8.0,86,0.00,,,0.15,,2013-10-15 03:44:00,
2013-10-14 22:55:00,74.0,70.0,29.89,South,169,0.0,7.0,87,0.00,,,0.15,,2013-10-15 03:55:00,
2013-10-14 23:14:00,74.0,70.0,29.90,SSE,168,0.0,6.0,87,0.00,,,0.15,,2013-10-15 04:14:00,
2013-10-14 23:24:00,74.0,70.0,29.89,South,171,4.0,8.0,88,0.00,,,0.15,,2013-10-15 04:24:00,
2013-10-14 23:43:00,74.0,70.0,29.89,South,188,3.0,8.0,88,0.00,,,0.15,,2013-10-15 04:43:00,
2013-10-14 23:54:00,73.0,69.0,29.89,SSE,165,3.0,9.0,88,0.00,,,0.15,,2013-10-15 04:54:00,